[[{"header":{"parameterUnit":"m.s-1","parameterCategory":1,"la1":30.2991,"la2":30.254,"lo1":-89.0895,"lo2":-89.0444,"dy":0.0017,"dx":0.0017,"nx":28,"ny":28,"refTime":"2024-03-28T21:00:00:Z","depth":0,"parameterNumber":2,"parameterNumberName":"U-component_of_WINDS"},"data":[0,0,0,0,0,0,0,0,0,0,0,0,0,0,0,0,0,0,0,0,0,0,0,0,0,0,0,0,0,0,0,0,0,0,0,0,0,0,0,0,0,0,0,0,0,0,0,0,0,0,0,0,0,0,0,0,0,0,-2.1463,-2.1463,0,-2.147,-2.147,-2.147,-2.143,-2.1429,-2.1428,-2.1427,-2.1435,-2.1436,-2.1437,0,0,0,0,0,0,0,0,0,0,0,0,0,-2.1417,-2.1418,-2.1463,-2.1463,-2.1463,-2.147,-2.147,-2.147,-2.1431,-2.1429,-2.1428,-2.1427,-2.1434,-2.1436,-2.1437,0,0,0,0,0,0,0,0,0,0,0,0,0,-2.1432,-2.1418,-2.1463,-2.1444,-2.1443,-2.147,-2.147,-2.147,-2.1431,-2.1429,-2.1427,-2.1426,-2.1434,-2.1436,-2.1438,-2.1483,0,0,-2.1443,-2.1444,0,0,0,0,0,0,0,0,-2.1431,-2.1433,-2.1447,-2.1445,-2.1444,-2.1447,-2.1456,-2.1474,-2.1431,-2.1435,-2.1427,-2.1425,-2.144,-2.1442,-2.1447,-2.1483,-2.1484,-2.1443,-2.1445,-2.1445,-2.1446,0,0,0,0,0,0,0,-2.143,-2.1433,-2.1465,-2.1447,-2.1445,-2.1436,-2.1436,-2.146,-2.1447,-2.1435,-2.1432,-2.1433,-2.1439,-2.1445,-2.1446,-2.1484,-2.1443,-2.1445,-2.1446,-2.1447,-2.1559,-2.156,0,0,0,0,0,0,-2.1431,-2.1432,-2.1465,-2.1466,-2.1433,-2.1438,-2.1438,-2.1448,-2.1447,-2.1445,-2.1435,-2.1431,-2.1442,-2.1444,-2.1447,-2.15,-2.1445,-2.1447,-2.1448,-2.1557,-2.1559,-2.1561,0,0,0,0,0,0,-2.143,-2.1435,-2.1465,-2.1448,-2.1451,-2.1441,-2.1452,-2.1449,-2.1454,-2.1447,-2.1444,-2.1443,-2.1441,-2.1444,-2.1474,-2.1499,-2.1448,-2.145,-2.1555,-2.1558,-2.156,-2.1607,0,0,0,0,0,0,-2.1429,-2.1434,-2.1451,-2.1449,-2.1452,-2.1492,-2.1453,-2.145,-2.1458,-2.1454,-2.1454,-2.1452,-2.144,-2.1472,-2.1476,-2.1501,-2.1451,-2.1552,-2.1556,-2.1559,-2.1603,-2.1611,-2.1617,0,0,0,0,0,-2.1428,-2.1464,-2.1452,-2.1456,-2.1473,-2.1494,-2.1496,-2.1481,-2.146,-2.1477,-2.1472,-2.1452,-2.1496,-2.1475,-2.148,-2.1506,-2.1551,-2.1555,-2.1559,-2.1599,-2.1609,-2.1617,0,0,0,0,0,0,-2.147,-2.1463,-2.145,-2.1487,-2.1491,-2.1487,-2.1508,-2.1492,-2.1502,-2.1498,-2.1479,-2.148,-2.1513,-2.1513,-2.1489,-2.155,-2.152,-2.1525,-2.1549,-2.1558,-2.1565,-2.1564,-2.1453,0,0,0,0,0,-2.1483,-2.15,-2.1494,-2.1527,-2.153,-2.1519,-2.1527,-2.1516,-2.1519,-2.1521,-2.1518,-2.1523,-2.1538,-2.1548,-2.1561,-2.1603,-2.1602,-2.1623,-2.163,-2.1636,-2.1641,-2.1663,-2.1672,-2.1575,-2.1575,-2.1575,0,0,-2.1512,-2.151,-2.1522,-2.1535,-2.1537,-2.1556,-2.152,-2.1541,-2.1555,-2.1524,-2.1552,-2.1551,-2.1555,-2.1591,-2.1607,-2.1592,-2.1668,-2.1642,-2.1647,-2.1648,-2.1668,-2.1678,-2.1686,-2.1577,-2.1577,-2.1577,0,0,-2.1572,-2.1573,-2.16,-2.1603,-2.1606,-2.1599,-2.1606,-2.1604,-2.1602,-2.163,-2.1608,-2.1624,-2.165,-2.1654,-2.1659,-2.1723,-2.1705,-2.1728,-2.1765,-2.1787,-2.1795,-2.1802,-2.1824,-2.1832,-2.1732,-2.1732,-2.1732,0,-2.1607,-2.1633,-2.1617,-2.1639,-2.1646,-2.1619,-2.1647,-2.1651,-2.1659,-2.1664,-2.1647,-2.1679,-2.168,-2.1717,-2.1733,-2.1738,-2.1745,-2.1727,-2.1795,-2.1802,-2.1808,-2.1829,-2.1838,-2.1735,-2.1735,-2.1735,-2.1734,0,-2.1675,-2.1694,-2.1716,-2.1724,-2.1733,-2.1759,-2.1747,-2.1758,-2.1746,-2.1741,-2.177,-2.177,-2.1783,-2.1792,-2.178,-2.1827,-2.1817,-2.1798,-2.1767,-2.182,-2.184,-2.1848,-2.1739,-2.1738,-2.1737,-2.1737,0,0,-2.1762,-2.1761,-2.1769,-2.1773,-2.1775,-2.1789,-2.1814,-2.1826,-2.1836,-2.1843,-2.1863,-2.1886,-2.1869,-2.1875,-2.1864,-2.1883,-2.1933,-2.1861,-2.1861,-2.1874,-2.1985,-2.2,-2.2009,-2.1922,-2.1923,-2.1924,-2.1985,0,-2.1821,-2.1861,-2.1848,-2.189,-2.1907,-2.1883,-2.1904,-2.1908,-2.1904,-2.1918,-2.1914,-2.193,-2.1906,-2.1909,-2.1927,-2.1923,-2.1955,-2.1919,-2.194,-2.1941,-2.194,-2.202,-2.2035,-2.2092,-2.1993,-2.1994,-2.1995,0,-2.1895,-2.1904,-2.1948,-2.1947,-2.1954,-2.1973,-2.1984,-2.1998,-2.2002,-2.1998,-2.2006,-2.1991,-2.2015,-2.1985,-2.2018,-2.1994,-2.2002,-2.2002,-2.2004,-2.2005,-2.1971,-2.2023,-2.211,-2.2118,-2.2007,-2.2006,-2.2005,0,-2.1953,-2.1977,-2.2006,-2.201,-2.201,-2.2024,-2.2025,-2.2028,-2.2037,-2.2046,-2.2052,-2.2064,-2.2071,-2.2082,-2.2071,-2.205,-2.2106,-2.2075,-2.2104,-2.2104,-2.2116,-2.2115,-2.2205,-2.2122,-2.2122,-2.2122,-2.2122,0,-2.202,-2.2048,-2.2032,-2.205,-2.2081,-2.2065,-2.2096,-2.2094,-2.2097,-2.2114,-2.2094,-2.2111,-2.2096,-2.2112,-2.2103,-2.2132,-2.2136,-2.2133,-2.2131,-2.2135,-2.2135,-2.214,-2.2135,-2.2124,-2.2124,-2.2123,-2.2123,0,-2.2091,-2.2081,-2.2111,-2.2109,-2.211,-2.2132,-2.2131,-2.2147,-2.2142,-2.2164,-2.2169,-2.2161,-2.2178,-2.2169,-2.2187,-2.2181,-2.2219,-2.2211,-2.2218,-2.2215,-2.2244,-2.2242,-2.234,-2.2352,-2.2262,-2.2262,-2.2263,0,-2.2134,-2.2155,-2.2155,-2.2165,-2.2167,-2.2184,-2.2192,-2.2179,-2.2189,-2.2196,-2.2212,-2.2227,-2.2239,-2.2269,-2.2265,-2.2279,-2.2271,-2.2304,-2.2273,-2.2276,-2.2271,-2.227,-2.2272,-2.2311,-2.2312,-2.2312,-2.2313,0,-2.2212,-2.2206,-2.2219,-2.2231,-2.2242,-2.2251,-2.2258,-2.2268,-2.2254,-2.2266,-2.2284,-2.2293,-2.2312,-2.2328,-2.234,-2.2341,-2.2325,-2.2323,-2.2331,-2.2335,-2.2338,-2.2337,-2.2235,-2.2321,-2.232,-2.232,-2.2319,-2.2319,-2.227,-2.2287,-2.229,-2.2306,-2.231,-2.2317,-2.2332,-2.2329,-2.2344,-2.2357,-2.2348,-2.2369,-2.2374,-2.2388,-2.2392,-2.2408,-2.2395,-2.2406,-2.2408,-2.2411,-2.2415,-2.2335,-2.2411,-2.241,-2.241,-2.241,-2.241,0,-2.2347,-2.2348,-2.2362,-2.2373,-2.2385,-2.2369,-2.2376,-2.2387,-2.2406,-2.2411,-2.2423,-2.2444,-2.2459,-2.2457,-2.2471,-2.2485,-2.2478,-2.2489,-2.2488,-2.2489,-2.2426,-2.2418,-2.2495,-2.2495,-2.2495,-2.2495,-2.2495,-2.2495,-2.2388,-2.2417,-2.2412,-2.2442,-2.2443,-2.2463,-2.2468,-2.2475,-2.2479,-2.2503,-2.2516,-2.2514,-2.2516,-2.2531,-2.2545,-2.2543,-2.255,-2.2564,-2.256,-2.2501,-2.2493,-2.2485,-2.2478,-2.2565,-2.2565,-2.2621,-2.2622,-2.2622]},{"header":{"parameterUnit":"m.s-1","parameterCategory":1,"la1":30.2991,"la2":30.254,"lo1":-89.0895,"lo2":-89.0444,"dy":0.0017,"dx":0.0017,"nx":28,"ny":28,"refTime":"2024-03-28T21:00:00:Z","depth":0,"parameterNumber":3,"parameterNumberName":"V-component_of_WINDS"},"data":[0,0,0,0,0,0,0,0,0,0,0,0,0,0,0,0,0,0,0,0,0,0,0,0,0,0,0,0,0,0,0,0,0,0,0,0,0,0,0,0,0,0,0,0,0,0,0,0,0,0,0,0,0,0,0,0,0,0,3.6001,3.6001,0,3.6003,3.6003,3.6003,3.5968,3.5967,3.5966,3.5965,3.5967,3.5968,3.5969,0,0,0,0,0,0,0,0,0,0,0,0,0,3.5966,3.5966,3.6001,3.6001,3.6001,3.6003,3.6003,3.6003,3.5968,3.5967,3.5965,3.5964,3.5966,3.5968,3.5969,0,0,0,0,0,0,0,0,0,0,0,0,0,3.5976,3.5967,3.6001,3.5984,3.5982,3.6003,3.6003,3.6003,3.5968,3.5967,3.5965,3.5964,3.5966,3.5967,3.5969,3.6007,0,0,3.5973,3.5974,0,0,0,0,0,0,0,0,3.5975,3.5977,3.5986,3.5985,3.5983,3.5984,3.5991,3.6004,3.5968,3.5973,3.5965,3.5963,3.5973,3.5974,3.5978,3.6007,3.6007,3.5973,3.5974,3.5975,3.5975,0,0,0,0,0,0,0,3.5974,3.5977,3.6002,3.5986,3.5985,3.5975,3.5975,3.5994,3.5982,3.5973,3.597,3.5971,3.5972,3.5977,3.5978,3.6007,3.5973,3.5975,3.5975,3.5976,3.6066,3.6068,0,0,0,0,0,0,3.5976,3.5976,3.6002,3.6002,3.5976,3.5977,3.5977,3.5985,3.5981,3.5979,3.5972,3.5969,3.5975,3.5976,3.5978,3.6021,3.5975,3.5976,3.5977,3.6065,3.6067,3.6068,0,0,0,0,0,0,3.5976,3.5979,3.6002,3.5988,3.5991,3.5979,3.5989,3.5986,3.599,3.5981,3.5978,3.5979,3.5974,3.5975,3.6,3.602,3.5977,3.5978,3.6063,3.6065,3.6067,3.6109,0,0,0,0,0,0,3.5975,3.5979,3.5993,3.5989,3.5992,3.6024,3.599,3.5987,3.5992,3.5989,3.5986,3.5984,3.5973,3.5998,3.6001,3.6022,3.5979,3.6061,3.6064,3.6067,3.6105,3.6112,3.6118,0,0,0,0,0,3.5974,3.6005,3.5994,3.5997,3.6009,3.6025,3.6027,3.6013,3.5994,3.6008,3.6003,3.5984,3.6018,3.6,3.6004,3.6025,3.606,3.6063,3.6067,3.6102,3.6111,3.6118,0,0,0,0,0,0,3.6012,3.6004,3.5992,3.6023,3.6025,3.6019,3.6037,3.6022,3.6029,3.6025,3.6007,3.6007,3.6034,3.6032,3.6013,3.6061,3.6035,3.604,3.6062,3.6069,3.6075,3.6075,3.598,0,0,0,0,0,3.6024,3.6037,3.603,3.6058,3.606,3.6048,3.6055,3.6043,3.6045,3.6046,3.6041,3.6044,3.6054,3.6062,3.6071,3.6105,3.6104,3.6122,3.6128,3.6133,3.6137,3.6154,3.6161,3.608,3.608,3.608,0,0,3.6049,3.6046,3.6056,3.6065,3.6066,3.608,3.6049,3.6066,3.6076,3.6048,3.607,3.6068,3.6068,3.6097,3.611,3.6097,3.6159,3.6137,3.6142,3.6142,3.6158,3.6166,3.6173,3.6082,3.6082,3.6081,0,0,3.6101,3.6101,3.6124,3.6125,3.6126,3.6118,3.6123,3.612,3.6117,3.6139,3.6118,3.613,3.6149,3.6151,3.6154,3.6207,3.619,3.6211,3.6243,3.626,3.6266,3.6272,3.629,3.6297,3.6215,3.6215,3.6215,0,3.6132,3.6153,3.6137,3.6155,3.616,3.6135,3.6158,3.616,3.6164,3.6167,3.6153,3.6176,3.6175,3.6204,3.6216,3.622,3.6226,3.621,3.6267,3.6272,3.6277,3.6294,3.6301,3.6217,3.6217,3.6217,3.6216,0,3.619,3.6205,3.6223,3.6228,3.6234,3.6255,3.6242,3.6251,3.6239,3.6233,3.6256,3.6254,3.6262,3.6268,3.6257,3.6295,3.6287,3.627,3.6243,3.6287,3.6303,3.631,3.6221,3.622,3.6219,3.6218,0,0,3.6266,3.6262,3.6269,3.627,3.6269,3.628,3.6299,3.6308,3.6315,3.6319,3.6334,3.6351,3.6335,3.6338,3.6327,3.6342,3.6384,3.6323,3.6323,3.6334,3.6424,3.6437,3.6445,3.6373,3.6374,3.6375,3.6424,0,3.6317,3.6349,3.6336,3.6369,3.6382,3.6359,3.6375,3.6377,3.6371,3.6381,3.6375,3.6387,3.6366,3.6368,3.6382,3.6376,3.6401,3.6372,3.6386,3.6387,3.6386,3.6453,3.6466,3.6512,3.643,3.6431,3.6432,0,3.638,3.6386,3.642,3.6416,3.6421,3.6437,3.6443,3.6453,3.6454,3.6449,3.6453,3.6439,3.6457,3.6431,3.6455,3.6436,3.6441,3.6439,3.644,3.644,3.6412,3.6454,3.6527,3.6533,3.6442,3.6441,3.644,0,3.6431,3.6448,3.647,3.6472,3.6469,3.648,3.6479,3.6478,3.6484,3.6489,3.6493,3.65,3.6504,3.6511,3.6499,3.6481,3.6525,3.6498,3.652,3.6521,3.653,3.6529,3.6604,3.6535,3.6535,3.6535,3.6535,0,3.6488,3.651,3.6493,3.6507,3.6531,3.6515,3.6539,3.6535,3.6535,3.6548,3.6528,3.6541,3.6524,3.6535,3.6526,3.6547,3.6549,3.6545,3.6543,3.6547,3.6547,3.6549,3.6545,3.6536,3.6536,3.6536,3.6535,0,3.6549,3.6539,3.6562,3.6556,3.6555,3.6573,3.6568,3.6581,3.6574,3.659,3.6593,3.6583,3.6594,3.6583,3.6594,3.6588,3.6616,3.6609,3.6616,3.6613,3.6636,3.6634,3.6714,3.6723,3.6649,3.665,3.6651,0,3.6586,3.6602,3.6598,3.6605,3.6605,3.6617,3.6622,3.6608,3.6614,3.6616,3.6629,3.6638,3.6645,3.6665,3.6658,3.6666,3.6659,3.6686,3.666,3.6663,3.6658,3.6657,3.6658,3.6691,3.6692,3.6693,3.6693,0,3.6652,3.6646,3.6654,3.6661,3.6668,3.6673,3.6677,3.6683,3.6668,3.6677,3.6688,3.6693,3.6704,3.6714,3.672,3.6719,3.6704,3.6702,3.6707,3.6711,3.6714,3.6712,3.6629,3.67,3.6699,3.6699,3.6698,3.6698,3.6701,3.6714,3.6713,3.6724,3.6724,3.6728,3.6739,3.6734,3.6743,3.6751,3.6742,3.6755,3.6755,3.6762,3.6763,3.6773,3.6761,3.677,3.6771,3.6774,3.6776,3.6713,3.6774,3.6774,3.6774,3.6774,3.6774,0,3.6765,3.6764,3.6773,3.6778,3.6786,3.6771,3.6774,3.6782,3.6794,3.6795,3.6802,3.6815,3.6825,3.6819,3.6827,3.6836,3.6829,3.6839,3.6837,3.6837,3.6787,3.6781,3.6844,3.6844,3.6844,3.6844,3.6844,3.6844,3.68,3.6821,3.6815,3.6836,3.6834,3.6847,3.685,3.6853,3.6854,3.6869,3.6876,3.6872,3.6871,3.6878,3.6886,3.6884,3.6888,3.69,3.6895,3.6848,3.6841,3.6834,3.6828,3.6901,3.6901,3.6944,3.6945,3.6945]}]]